TimeCST,TemperatureF,Dew PointF,Humidity,Sea Level PressureIn,VisibilityMPH,Wind Direction,Wind SpeedMPH,Gust SpeedMPH,PrecipitationIn,Events,Conditions,WindDirDegrees,DateUTC
12:53 AM,35.1,30.9,85,30.32,9.0,Calm,Calm,-,N/A,,Clear,0,2012-11-19 06:53:00
1:53 AM,35.1,32.0,89,30.32,8.0,Calm,Calm,-,N/A,,Clear,0,2012-11-19 07:53:00
2:53 AM,35.1,32.0,89,30.31,8.0,Calm,Calm,-,N/A,,Clear,0,2012-11-19 08:53:00
3:53 AM,36.0,33.1,89,30.30,8.0,Calm,Calm,-,N/A,,Clear,0,2012-11-19 09:53:00
4:53 AM,35.1,32.0,89,30.31,8.0,Calm,Calm,-,N/A,,Clear,0,2012-11-19 10:53:00
5:53 AM,35.1,32.0,89,30.30,8.0,Calm,Calm,-,N/A,,Clear,0,2012-11-19 11:53:00
6:53 AM,35.1,33.1,92,30.31,7.0,Calm,Calm,-,N/A,,Clear,0,2012-11-19 12:53:00
7:53 AM,39.0,35.1,86,30.32,6.0,Calm,Calm,-,N/A,,Clear,0,2012-11-19 13:53:00
8:53 AM,46.9,39.0,74,30.32,8.0,Calm,Calm,-,N/A,,Clear,0,2012-11-19 14:53:00
9:53 AM,57.9,35.1,42,30.32,10.0,SW,5.8,-,N/A,,Clear,220,2012-11-19 15:53:00
10:53 AM,60.1,36.0,41,30.30,10.0,WSW,4.6,-,N/A,,Clear,240,2012-11-19 16:53:00
11:53 AM,63.0,35.1,35,30.27,10.0,SW,4.6,-,N/A,,Clear,230,2012-11-19 17:53:00
12:53 PM,64.0,35.1,34,30.25,10.0,Variable,4.6,-,N/A,,Clear,0,2012-11-19 18:53:00
1:53 PM,64.9,35.1,33,30.22,10.0,SW,5.8,-,N/A,,Clear,220,2012-11-19 19:53:00
2:53 PM,63.0,35.1,35,30.20,10.0,SW,3.5,-,N/A,,Mostly Cloudy,220,2012-11-19 20:53:00
3:53 PM,62.1,37.0,39,30.20,10.0,SW,3.5,-,N/A,,Overcast,230,2012-11-19 21:53:00
4:53 PM,57.9,39.0,49,30.20,10.0,West,3.5,-,N/A,,Overcast,280,2012-11-19 22:53:00
5:53 PM,57.0,37.9,49,30.21,10.0,Calm,Calm,-,N/A,,Overcast,0,2012-11-19 23:53:00
6:53 PM,55.9,39.0,53,30.19,10.0,Calm,Calm,-,N/A,,Overcast,0,2012-11-20 00:53:00
7:53 PM,54.0,41.0,62,30.19,10.0,South,3.5,-,N/A,,Overcast,170,2012-11-20 01:53:00
8:53 PM,52.0,42.1,69,30.19,10.0,Calm,Calm,-,N/A,,Overcast,0,2012-11-20 02:53:00
9:53 PM,51.1,43.0,74,30.17,10.0,Calm,Calm,-,N/A,,Overcast,0,2012-11-20 03:53:00
10:53 PM,54.0,39.9,59,30.16,10.0,Calm,Calm,-,N/A,,Overcast,0,2012-11-20 04:53:00
11:53 PM,53.1,42.1,66,30.14,10.0,South,3.5,-,N/A,,Overcast,190,2012-11-20 05:53:00